Wind_Speed
60 59 59 58 57 57 56 55 54 54 53 53 52 52 53 54 54 55 54 55 56 56 56 56 56 55 54 53 53 53 52 52 51 50 51 50 50 50 48 48 48 48 48 49 50 50 50 50 50 50 50 50 50 51 52 53 53 53 52 51 50 48 48 48 47 46 46 45 46 47 48 50 51 50 49 49 49 50 51 53 55 57 57 58 58
61 61 60 59 59 58 57 56 56 55 55 54 54 55 55 56 56 56 56 57 57 57 57 57 57 57 56 56 56 55 54 54 53 52 52 52 51 51 50 50 50 50 50 51 51 52 53 52 52 51 51 51 51 52 53 53 54 53 52 51 49 48 48 48 48 48 48 48 48 49 50 51 52 52 51 51 51 51 51 52 54 56 58 58 59
61 60 60 60 60 59 59 58 58 57 56 56 56 56 57 58 58 58 58 58 59 58 58 58 58 58 58 57 57 56 55 54 54 53 53 53 52 52 51 51 51 51 51 52 53 54 54 54 54 53 53 53 53 53 54 53 53 52 51 50 49 48 48 48 50 50 50 50 50 50 51 53 54 54 53 52 51 51 52 53 53 55 56 57 58
59 59 59 59 60 60 60 60 60 59 59 58 58 58 59 59 59 59 59 60 60 60 59 59 59 59 58 58 57 56 55 54 54 53 53 53 53 53 53 53 53 53 53 53 54 54 55 55 55 55 55 54 54 54 53 53 52 51 50 49 48 48 48 50 52 53 52 50 50 51 53 53 55 56 55 53 52 52 53 53 54 54 55 55 56
56 57 58 58 59 59 59 60 60 60 60 59 59 59 59 60 60 60 60 60 61 61 61 61 60 60 59 59 58 56 55 55 54 54 55 55 54 54 55 55 55 54 55 55 55 55 56 56 56 57 56 55 55 54 53 52 52 51 50 49 48 48 50 52 53 53 52 51 52 53 54 54 55 56 55 54 54 54 53 54 55 55 54 54 55
53 54 55 56 57 57 58 58 59 59 59 60 60 60 60 60 60 60 61 61 61 62 62 62 62 62 61 60 59 58 57 56 56 56 58 59 59 59 58 58 57 57 57 57 57 57 57 57 57 57 56 56 55 54 53 53 51 50 49 48 49 51 52 53 52 52 53 53 53 54 55 55 56 56 55 55 56 56 55 55 56 55 54 54 54
50 51 52 53 54 55 56 56 57 58 58 59 59 59 60 60 61 61 61 61 62 63 63 63 64 64 64 63 62 61 60 59 59 61 62 63 64 64 63 62 61 60 59 58 58 58 58 57 57 56 56 55 55 55 54 53 52 51 50 50 51 53 53 52 52 53 53 54 55 55 56 57 57 56 56 57 58 57 56 56 56 55 55 54 55
49 49 49 50 50 51 52 54 55 56 57 58 58 58 59 59 60 60 61 61 62 62 63 63 64 65 65 66 66 65 65 65 66 67 67 68 67 67 67 66 65 64 62 61 60 60 59 58 57 56 55 54 54 54 54 53 52 52 52 52 53 53 52 52 54 54 55 55 56 56 57 58 58 58 58 59 58 58 58 57 55 54 54 54 54
52 51 51 50 49 49 48 49 51 52 54 55 56 56 57 57 58 58 58 58 58 59 59 59 60 61 62 63 64 65 65 65 65 66 66 66 66 67 68 68 68 66 65 64 63 62 61 60 59 58 58 57 57 56 55 54 53 53 53 54 54 52 52 53 55 55 56 57 57 57 58 59 59 59 59 60 59 58 58 56 55 54 54 54 54
57 57 56 55 55 53 51 50 50 51 52 53 53 53 53 53 53 53 54 54 54 55 54 54 54 54 55 56 57 58 58 58 59 59 60 61 61 62 63 64 64 64 64 64 63 62 61 60 59 59 59 59 59 58 57 55 54 55 56 56 54 52 53 55 55 56 57 57 58 59 59 60 60 60 60 60 59 58 57 55 54 53 53 54 54
60 60 61 61 61 59 57 56 55 55 56 56 56 55 54 53 53 52 52 51 52 51 51 51 51 51 51 51 52 53 54 55 56 57 58 59 60 60 60 60 60 60 60 60 59 59 58 58 57 57 57 58 58 57 57 56 57 57 58 57 54 52 53 55 55 56 58 58 59 60 60 61 61 61 61 60 59 58 57 56 54 54 54 53 53
62 63 63 64 65 64 63 62 61 60 60 60 61 60 59 59 58 57 56 55 54 53 52 52 52 52 52 52 52 53 54 55 57 59 60 61 62 62 61 61 60 60 59 58 57 56 56 55 55 55 56 56 56 56 57 57 58 57 56 54 53 52 53 54 56 57 58 59 59 60 61 62 62 62 61 60 59 59 57 56 55 54 54 53 53
66 67 67 67 68 68 69 68 66 66 65 65 65 65 64 64 63 63 62 62 61 60 59 58 57 57 57 57 56 56 57 58 60 61 62 63 64 64 64 64 63 62 61 59 58 56 55 54 54 55 55 55 56 56 56 56 55 54 53 52 52 53 54 55 57 58 59 59 60 61 62 63 62 61 60 60 59 58 57 56 55 54 53 52 53
68 69 70 71 71 71 72 72 72 72 71 71 70 69 69 69 68 68 68 67 66 66 65 65 64 64 64 63 62 61 61 63 64 64 65 66 66 67 67 66 66 65 64 63 61 59 57 55 55 55 55 56 56 56 55 54 53 52 52 52 53 54 55 57 58 58 59 60 60 62 63 63 62 61 60 59 58 58 57 56 55 54 53 52 53
68 69 70 71 72 73 73 74 74 75 76 76 75 74 74 74 75 74 74 73 72 71 71 70 69 69 68 68 67 66 65 66 67 68 68 69 70 70 69 69 68 67 67 66 64 63 60 57 56 56 56 56 56 55 55 54 54 54 53 53 54 55 56 57 58 59 60 61 61 62 63 63 62 61 59 58 58 57 56 56 56 54 53 52 53
68 68 69 70 71 72 73 74 74 75 77 78 78 78 78 78 79 79 79 78 77 76 75 74 74 73 72 72 71 70 69 68 68 69 71 72 73 73 72 72 71 70 69 67 66 64 61 59 58 57 56 55 54 54 54 54 55 54 53 53 54 55 56 58 59 59 60 61 62 63 63 63 61 60 59 58 57 56 56 56 56 54 52 52 52
70 70 70 71 72 73 74 74 74 75 77 78 79 79 79 78 79 79 79 79 79 79 78 78 77 77 77 76 75 74 73 72 71 71 72 73 75 75 75 74 73 72 71 69 67 65 63 61 59 57 56 54 53 53 54 54 54 53 53 53 54 55 56 58 59 60 60 61 62 62 63 62 61 59 58 57 56 56 56 56 55 53 52 52 52
74 73 73 74 75 76 76 76 76 76 77 78 79 80 80 79 78 78 78 78 79 79 79 79 79 79 79 78 78 77 75 74 74 73 73 74 76 77 77 76 75 75 73 71 69 67 66 64 61 58 55 53 52 53 54 54 53 53 53 53 54 55 56 58 59 60 60 61 61 61 61 61 59 58 57 56 56 56 56 56 54 53 52 51 52
77 75 74 75 76 78 78 78 78 78 78 78 79 80 81 81 80 80 80 80 79 79 79 78 78 78 78 78 78 77 76 75 74 74 73 74 76 77 78 78 77 75 74 72 71 70 68 66 63 60 57 54 53 53 53 53 53 53 53 53 53 55 57 58 59 60 60 60 60 61 61 60 59 57 57 56 56 56 56 55 54 53 51 51 52
77 77 76 75 75 76 78 79 80 79 78 78 78 79 81 82 82 82 82 82 81 81 80 79 78 77 77 77 77 76 75 75 74 74 73 73 74 76 77 77 76 76 75 73 72 70 69 66 63 61 59 56 54 53 53 53 53 53 53 53 54 55 57 58 59 59 59 60 60 61 61 60 58 57 56 56 55 56 56 55 54 52 51 51 51
75 76 76 75 75 75 76 77 79 80 81 80 79 78 79 80 81 81 82 82 82 82 81 81 80 78 78 78 78 77 77 76 76 76 74 73 73 74 74 74 74 75 75 74 72 70 68 65 63 61 60 59 56 54 53 53 53 53 54 54 55 57 58 58 59 59 59 60 60 61 60 59 57 56 56 56 56 56 55 54 53 52 51 51 51
72 73 74 75 75 75 75 75 76 77 79 80 80 80 79 79 78 78 78 79 80 81 81 82 81 81 80 80 80 79 79 78 78 78 77 75 74 74 73 72 73 75 75 74 72 70 68 66 63 62 61 59 58 56 54 54 54 54 55 56 57 58 59 59 58 58 59 60 61 61 60 58 56 56 57 57 56 56 54 53 53 52 52 52 51
71 72 73 74 74 75 75 75 76 76 76 77 78 79 80 80 78 77 76 75 75 76 77 79 81 81 81 81 81 80 80 79 79 79 78 77 76 75 73 73 73 74 74 73 72 71 69 66 64 62 61 61 60 58 57 57 57 56 57 58 58 58 58 58 57 57 58 60 61 61 60 58 56 57 58 58 57 55 54 53 53 53 52 52 52
70 71 72 73 74 74 74 75 75 76 76 76 76 77 78 79 79 78 77 76 74 73 72 73 75 77 79 80 81 81 81 80 80 79 79 78 78 76 75 74 74 74 74 73 72 71 70 68 66 64 63 62 61 60 59 60 59 58 58 58 58 58 58 58 57 57 58 59 61 61 59 57 57 57 58 58 58 56 53 52 52 53 53 52 52
66 67 68 70 70 71 71 72 72 73 74 74 74 74 74 75 75 75 75 74 74 72 71 70 70 71 73 74 76 78 79 79 79 79 79 79 79 78 77 76 75 74 74 74 74 73 71 70 68 67 66 65 63 63 63 62 61 60 59 59 59 58 58 58 58 58 59 60 60 59 58 57 56 57 57 58 57 55 53 53 53 53 53 52 52
64 62 63 64 65 65 65 65 65 66 68 68 69 69 69 69 68 68 68 68 67 67 67 67 66 66 67 67 68 70 72 74 76 78 78 78 78 78 78 78 77 76 76 75 73 72 71 70 69 69 69 69 68 66 66 65 63 61 60 59 59 59 59 59 59 59 60 61 60 59 58 56 56 56 57 57 56 54 53 54 54 53 52 53 53
62 60 58 58 59 60 60 59 59 59 60 61 61 62 62 62 61 60 60 60 60 60 60 61 61 61 61 62 62 63 65 66 68 71 74 75 76 76 77 77 78 78 77 76 75 75 75 75 75 74 73 72 71 69 68 67 65 62 60 59 59 59 60 60 61 61 62 62 61 60 58 56 56 56 57 57 56 54 54 55 54 53 53 53 53
57 56 54 51 51 52 54 54 55 55 55 55 55 55 55 55 54 53 53 53 53 53 54 54 56 57 57 57 58 58 60 60 61 63 66 69 71 72 73 74 75 77 77 76 76 76 76 77 77 77 76 75 72 69 68 67 65 63 61 60 59 59 60 61 63 63 63 63 62 61 59 58 58 58 58 58 56 55 55 56 55 54 53 53 53
54 54 51 48 46 46 48 49 51 51 51 50 51 51 51 52 51 50 50 50 50 49 49 50 51 53 53 54 55 55 56 57 59 59 60 63 66 68 70 70 71 72 73 75 76 76 75 75 74 75 75 74 72 69 68 67 65 62 61 60 60 61 61 63 65 64 64 64 64 62 60 60 60 59 59 58 57 56 56 56 56 55 53 53 53
53 52 51 49 49 48 48 49 49 50 49 49 49 50 50 51 51 51 51 51 51 50 50 49 50 51 51 52 54 55 55 56 58 58 58 60 63 66 67 68 67 65 64 67 72 75 76 77 76 76 74 73 70 69 68 68 67 64 62 61 63 64 64 65 66 65 65 65 65 63 61 61 61 61 60 58 57 56 57 57 56 55 53 53 53
54 53 51 50 49 49 49 50 50 51 51 51 51 50 50 50 50 51 51 52 51 51 51 50 50 51 51 51 53 54 55 57 58 59 58 58 60 63 65 66 67 65 61 60 62 67 72 75 76 75 74 73 71 71 70 70 69 68 65 65 66 67 67 67 67 66 66 66 65 64 62 61 61 61 60 58 57 57 57 57 56 55 53 53 53
59 57 55 54 52 52 52 51 52 52 51 51 51 51 51 50 49 48 49 50 51 51 51 50 50 50 51 51 52 53 54 55 57 58 58 59 59 61 63 64 65 65 63 60 59 60 65 69 71 72 73 74 72 71 70 70 71 71 70 70 70 69 69 68 68 67 67 66 66 64 62 61 61 60 59 58 57 57 58 57 56 54 53 52 52
60 59 58 56 54 53 53 52 52 52 52 51 51 50 51 51 50 49 48 47 47 49 49 50 50 49 50 50 50 51 52 54 55 55 57 57 58 59 60 61 62 63 64 63 62 60 60 62 65 68 70 71 71 69 68 68 69 70 71 72 73 72 70 69 69 69 68 67 66 64 63 62 61 60 58 57 57 58 58 56 54 53 52 52 52
57 57 56 55 53 52 52 52 52 52 52 52 51 51 51 51 51 51 50 48 46 46 46 48 48 48 48 48 49 49 50 51 52 53 54 55 56 57 57 58 59 60 61 62 64 64 62 59 59 61 65 67 68 68 67 66 65 65 65 67 69 71 72 71 70 71 70 68 66 64 64 63 61 58 57 57 57 57 56 55 53 52 52 51 52
55 55 55 54 53 52 52 52 52 52 52 52 52 52 52 52 52 52 51 51 50 48 47 47 48 48 48 47 48 48 49 49 49 51 52 53 54 55 56 56 56 57 57 58 60 62 63 61 58 57 59 61 63 63 63 62 62 63 63 62 61 64 67 69 70 70 71 70 67 66 66 64 60 58 57 57 57 56 55 53 52 51 51 52 53
57 57 56 56 56 55 54 54 54 54 54 54 55 55 55 55 55 55 54 53 53 52 52 51 51 50 50 49 49 50 49 49 49 50 50 51 53 54 55 56 56 57 57 57 57 58 60 61 60 58 57 57 58 60 60 60 60 61 62 62 60 58 59 64 67 68 69 69 69 69 68 65 61 58 57 56 55 55 54 52 51 51 52 53 54
60 60 60 60 60 60 59 59 58 58 58 58 59 59 59 59 59 59 58 58 57 57 56 56 55 54 54 54 54 54 53 52 52 51 51 52 53 54 54 55 56 57 58 58 58 57 57 58 59 59 57 56 56 57 59 60 60 60 60 62 62 58 56 59 63 66 68 69 69 69 69 66 62 59 57 56 55 54 53 51 51 52 53 54 55
65 65 65 65 65 64 64 64 64 64 64 64 64 64 64 64 64 63 63 62 62 62 61 61 60 60 59 59 59 59 58 57 56 55 55 54 54 55 55 55 56 57 58 59 60 60 59 58 57 58 58 57 56 55 56 57 59 59 59 60 62 60 57 57 59 63 66 68 68 68 68 66 63 60 57 55 53 52 52 52 52 53 54 55 55
71 70 70 70 70 70 70 69 69 69 69 69 69 69 69 69 68 68 68 67 67 66 66 66 65 65 64 64 64 64 63 63 62 61 60 58 57 57 57 57 57 58 59 60 61 61 61 61 59 58 58 58 57 56 55 54 54 55 56 57 59 60 58 56 58 61 64 66 66 66 66 64 62 59 56 54 52 51 52 52 53 54 54 54 55
75 75 75 76 76 76 76 75 75 75 75 75 75 74 74 74 74 73 73 72 72 71 71 70 70 69 69 69 69 69 69 68 67 66 65 64 62 61 60 59 59 60 60 61 62 63 64 64 62 60 58 58 58 58 57 55 53 53 54 55 56 58 58 57 57 59 61 63 65 65 64 63 60 58 55 52 51 51 52 53 54 54 54 54 55
78 78 78 79 80 81 81 81 81 81 81 81 80 80 80 80 79 79 78 78 77 77 76 76 75 74 74 74 74 74 74 73 72 72 71 70 69 67 66 64 63 62 62 63 63 64 66 67 66 64 62 60 59 59 59 57 55 54 54 55 56 57 58 58 59 59 60 61 62 63 62 60 58 56 53 51 50 51 52 54 54 54 54 54 54
80 80 81 82 83 83 84 85 85 86 86 86 86 86 86 85 85 85 84 83 83 82 82 81 80 79 79 79 78 78 78 77 77 76 76 75 74 73 71 70 68 66 66 65 65 65 67 68 69 68 66 63 62 61 60 60 57 55 54 55 57 59 59 60 60 60 60 60 61 61 60 59 57 54 51 50 51 52 53 54 54 54 54 55 54
82 83 84 85 85 86 87 87 88 88 89 89 89 90 90 90 90 90 89 89 88 87 87 85 84 84 83 83 82 82 82 81 81 80 80 79 79 77 76 75 73 71 70 69 67 67 67 69 70 71 69 67 65 64 62 61 59 57 55 54 56 59 61 62 62 61 61 61 61 61 60 59 56 52 51 51 52 53 54 55 54 54 55 55 54
87 88 89 90 90 91 91 91 92 92 92 92 92 92 92 93 93 93 93 92 92 91 91 90 89 88 87 87 87 87 86 85 85 84 83 83 82 81 80 79 77 76 75 73 71 70 69 70 72 73 72 70 69 67 65 63 61 59 57 55 54 56 59 62 63 63 63 62 61 61 59 56 53 51 51 52 53 54 55 55 54 54 55 55 54
94 95 95 96 96 96 97 97 97 97 97 97 97 96 97 97 97 96 96 96 95 95 94 94 93 93 92 92 91 91 90 90 89 88 87 87 86 85 85 83 82 80 79 77 75 74 72 71 72 74 75 74 71 70 68 66 64 61 58 56 55 54 55 58 61 62 62 61 60 58 55 52 51 52 54 54 55 55 55 55 55 55 55 56 55
101 101 102 103 103 103 103 103 103 103 103 102 102 102 101 101 101 101 101 100 100 99 98 98 97 96 96 95 95 94 94 93 93 92 91 91 90 90 89 88 87 86 85 83 80 78 76 74 73 74 76 76 74 72 70 69 67 63 59 57 56 54 53 54 55 56 57 56 55 53 52 52 53 54 55 55 55 55 56 55 55 56 56 56 56
102 103 105 106 106 107 108 109 109 109 109 109 108 108 107 106 105 105 104 103 103 103 102 101 101 100 100 99 98 98 98 98 97 97 97 96 96 95 95 94 93 92 90 89 86 83 80 76 74 74 75 77 76 74 72 71 69 65 60 57 56 55 54 52 52 52 52 52 52 52 53 53 54 54 55 55 55 56 56 56 56 57 57 57 58
91 92 93 94 96 97 99 101 102 104 106 108 109 110 111 110 110 109 109 108 107 107 106 106 105 105 105 104 104 104 104 104 103 103 103 103 102 101 101 100 98 97 95 93 91 89 85 80 76 73 74 76 77 75 73 71 70 67 62 58 57 56 55 53 52 51 51 52 53 53 54 55 55 55 55 56 56 56 57 57 57 58 58 59 59
76 75 75 75 75 76 76 77 79 81 83 86 89 92 95 98 100 101 103 103 104 104 104 104 104 104 104 104 104 104 104 104 104 105 105 104 104 103 103 102 101 100 98 96 94 92 89 85 79 74 73 74 76 76 74 71 70 68 64 60 58 58 57 56 54 54 54 54 55 55 56 56 56 56 56 56 57 57 57 58 58 59 60 60 61
62 60 60 59 59 58 58 59 60 61 62 63 65 67 69 70 72 74 76 77 79 80 81 82 83 83 84 84 85 86 86 87 88 89 90 91 92 93 94 95 95 96 95 95 94 92 91 87 83 77 74 73 74 75 73 71 69 68 65 62 59 58 59 58 58 57 57 57 58 58 57 57 57 56 57 57 58 58 58 59 60 61 62 62 62
50 51 52 52 52 52 53 53 54 55 55 55 55 56 56 56 57 57 58 59 60 62 63 64 65 66 66 67 67 67 66 66 66 66 67 68 70 71 72 74 76 78 80 82 83 84 84 83 80 77 73 72 72 72 70 69 67 66 65 63 60 58 59 61 61 60 60 59 59 59 58 58 57 57 58 59 59 59 60 60 61 63 64 64 65
Wind_Direction
265 265 265 266 266 266 266 266 266 266 266 266 266 266 267 268 269 270 271 273 274 275 276 278 278 279 279 279 279 279 279 280 281 282 282 283 284 285 285 285 285 285 285 285 286 287 287 287 287 286 285 284 285 286 286 287 287 289 290 291 293 293 293 293 295 297 296 294 294 293 292 292 292 293 293 292 291 290 287 285 283 281 280 281 282
264 265 265 265 265 265 265 265 265 264 264 265 265 266 266 267 267 269 270 271 272 273 275 276 277 277 278 278 278 278 279 279 280 281 282 283 284 285 286 286 286 286 286 286 287 287 287 287 287 287 285 284 284 285 285 286 287 289 291 292 292 292 292 293 294 295 294 293 292 292 292 292 292 293 293 293 293 293 290 288 285 283 282 283 284
264 264 265 265 265 265 265 265 264 264 264 264 264 265 265 266 267 268 269 270 271 272 273 274 275 276 277 277 278 278 279 279 280 282 283 284 285 286 287 287 287 287 286 286 286 286 287 287 287 286 285 284 284 284 286 287 289 290 291 291 291 291 291 291 292 294 293 291 291 291 291 291 293 293 293 294 295 294 292 290 288 287 285 285 286
264 264 264 264 265 265 265 265 265 264 264 264 263 264 264 265 266 267 269 270 271 272 273 273 274 275 276 277 277 278 279 280 281 282 284 285 286 287 287 287 287 287 287 286 286 286 286 287 287 286 285 285 285 286 287 289 290 290 290 290 290 289 289 290 291 292 291 290 290 290 290 291 292 293 293 295 295 294 292 291 290 289 288 288 288
263 263 263 263 263 264 264 264 265 264 264 264 264 264 264 265 266 268 269 270 271 272 272 273 273 274 275 275 276 277 278 280 282 284 285 286 287 287 288 288 288 287 287 287 287 287 287 287 287 286 286 287 287 288 289 289 289 289 289 289 288 287 288 290 291 290 289 289 289 289 290 291 292 292 292 293 293 293 292 291 290 290 290 290 290
262 262 262 262 262 263 263 264 264 265 265 265 265 265 265 266 267 268 269 270 271 272 273 273 274 274 274 275 275 277 278 280 283 285 287 288 288 288 287 287 287 287 288 288 288 288 288 288 288 287 288 289 289 289 288 288 288 289 288 287 287 288 290 290 289 287 288 288 288 288 289 290 291 291 290 291 292 293 292 291 290 291 292 292 292
261 262 262 262 262 263 264 264 265 265 265 266 266 266 266 266 267 267 268 269 270 271 272 273 274 274 275 275 276 277 278 280 283 285 287 288 288 288 287 286 286 286 286 287 288 288 289 289 289 290 290 290 290 289 289 289 289 288 287 287 287 289 291 289 287 287 287 288 288 288 288 289 290 289 289 289 290 292 291 291 291 291 292 292 293
264 264 264 265 264 263 263 264 264 265 265 266 266 266 266 266 267 267 268 269 269 270 271 272 273 274 275 276 277 278 279 281 283 285 286 287 287 286 286 285 285 285 285 286 287 288 288 289 289 289 289 289 289 289 289 289 289 288 287 287 288 290 289 287 286 287 287 288 288 288 288 289 289 288 288 288 289 290 291 292 292 291 291 292 293
269 269 269 269 268 267 266 264 264 264 264 265 265 266 266 267 268 269 270 271 271 272 272 273 274 275 276 277 278 279 280 282 284 285 286 287 286 286 285 285 286 286 286 286 286 287 287 286 286 286 287 287 287 288 288 288 288 287 286 287 289 289 287 286 286 287 287 288 288 288 288 288 288 287 287 287 288 290 292 293 292 291 291 291 292
270 271 272 272 271 271 269 268 266 265 265 266 266 267 267 268 269 270 271 271 272 272 273 273 274 274 276 277 278 280 281 283 285 286 287 288 288 288 287 287 288 288 288 287 287 287 286 286 287 287 287 287 287 288 288 287 286 285 286 288 289 287 286 286 286 286 287 287 288 288 288 288 286 286 286 286 288 290 292 293 292 290 289 290 292
268 269 271 272 272 271 271 270 269 268 268 269 270 270 270 271 271 272 273 273 272 272 272 272 273 273 274 275 276 278 279 281 283 284 286 287 288 288 288 288 288 288 288 288 288 288 288 288 288 289 289 289 289 288 288 287 286 287 288 290 289 286 284 285 285 285 286 286 287 287 287 287 286 286 285 286 287 290 292 293 292 290 289 290 292
266 267 268 270 271 272 271 271 270 269 269 270 271 271 272 272 273 273 273 273 273 273 273 273 273 273 274 274 276 277 279 281 282 283 284 285 286 286 286 286 286 286 286 287 287 288 288 288 288 288 288 288 288 287 287 287 287 288 289 289 287 284 282 282 283 284 284 285 286 286 286 286 286 285 285 285 287 289 291 293 293 291 289 290 292
267 268 268 269 270 271 272 272 272 271 270 270 270 271 271 271 271 272 272 272 272 273 273 273 274 275 275 276 277 278 280 280 281 282 283 283 284 284 284 285 285 285 286 286 286 286 287 287 287 287 286 286 285 285 286 286 287 288 287 285 283 281 281 281 281 282 283 285 285 286 285 285 285 285 285 285 286 288 291 293 294 292 289 289 291
267 268 269 270 270 270 271 272 272 272 272 272 271 271 271 271 271 271 271 271 272 272 272 273 273 274 275 276 276 277 278 278 278 279 280 280 281 281 282 282 283 283 284 285 286 286 286 286 285 285 285 284 284 285 285 285 285 284 282 281 280 280 280 281 281 282 283 284 284 285 285 285 285 285 285 285 286 288 290 293 294 292 289 289 290
265 267 268 269 269 269 269 270 270 271 271 272 272 272 272 272 272 272 272 272 272 272 272 272 272 272 273 273 274 274 275 275 275 276 277 277 278 278 279 280 280 281 281 282 283 284 284 284 284 284 284 284 284 284 284 283 282 281 281 280 279 279 279 279 280 280 281 282 283 284 284 285 285 286 286 286 286 287 290 293 293 291 288 288 290
262 263 263 264 265 266 267 267 268 268 269 270 270 271 271 271 272 272 272 272 272 272 271 271 271 272 272 272 272 273 273 272 272 272 273 274 275 276 277 278 279 279 280 281 282 282 283 283 284 284 283 283 283 282 282 281 281 281 280 279 278 278 277 277 278 279 280 281 282 283 284 285 286 287 287 286 286 286 289 292 292 290 288 288 290
263 261 260 260 261 262 263 264 265 266 267 268 269 269 269 268 268 268 269 269 270 270 270 270 270 271 271 271 271 271 271 271 270 269 270 272 273 274 275 276 277 279 280 281 282 283 283 284 283 283 283 283 282 281 280 280 280 280 279 278 277 277 276 276 277 278 279 280 282 283 284 285 286 287 287 286 285 285 288 290 290 289 287 288 290
267 265 263 261 260 260 260 261 262 262 263 265 266 267 268 267 266 266 266 266 267 267 268 268 269 269 269 270 270 270 270 271 270 269 268 270 272 274 274 275 276 278 279 281 282 282 283 283 283 283 283 283 281 280 279 279 279 279 278 277 277 276 276 276 276 277 279 280 281 283 284 285 286 286 286 285 283 284 287 289 290 288 287 288 290
268 268 266 264 262 261 261 261 262 261 261 261 262 263 264 265 266 266 266 266 266 266 266 267 267 268 268 269 269 270 270 271 271 271 270 270 271 273 274 275 276 277 279 280 281 281 282 282 282 282 282 281 280 279 279 278 279 278 277 277 277 276 275 275 276 278 279 281 282 283 284 285 285 285 285 284 283 283 286 289 289 288 287 288 290
268 268 267 266 265 263 263 263 263 263 262 261 260 260 261 262 263 264 265 265 266 266 266 267 267 268 268 269 269 270 270 271 272 272 272 271 272 273 274 275 276 277 278 279 279 280 281 281 281 280 279 278 278 278 277 278 278 277 277 277 277 275 274 275 276 278 280 281 283 283 284 284 284 284 283 283 282 283 286 288 288 288 287 289 291
267 267 267 267 266 266 265 264 264 264 264 264 263 262 262 261 261 262 262 263 263 264 265 266 266 267 268 269 269 270 270 271 272 272 272 271 271 272 273 274 275 276 277 278 279 279 280 279 279 278 277 276 276 276 276 276 276 277 277 277 276 275 275 275 276 278 280 282 283 283 283 283 283 283 284 283 282 283 285 287 287 287 288 289 291
266 266 266 266 266 266 265 265 264 264 264 264 264 264 264 263 262 262 261 261 262 262 263 264 265 266 266 267 268 268 269 269 270 270 271 271 271 271 272 272 273 273 274 276 277 278 278 278 277 276 275 275 275 275 275 275 276 277 277 276 275 274 275 275 276 278 281 283 283 283 283 283 283 283 283 283 282 282 284 286 287 287 287 288 290
266 265 265 265 265 265 265 265 265 265 265 264 264 264 265 265 265 265 264 263 263 262 262 262 263 264 265 266 267 268 268 268 269 270 270 270 271 271 271 272 272 272 273 274 275 275 276 276 275 274 274 274 274 274 275 276 276 277 276 275 275 274 274 275 277 279 281 282 283 283 283 283 283 283 283 283 281 281 282 284 286 286 287 288 290
271 269 268 267 266 266 266 266 266 266 266 266 266 265 266 266 267 268 268 268 267 266 265 263 262 262 263 264 265 267 268 269 269 270 271 271 271 271 272 272 273 273 273 273 273 274 274 275 274 274 274 274 274 274 275 276 276 276 275 275 275 275 275 277 278 279 280 282 282 282 282 283 282 282 282 282 280 280 282 284 285 286 287 288 289
273 273 273 272 271 270 269 269 269 269 269 268 268 268 268 268 269 270 270 271 271 271 271 270 268 267 265 265 264 265 266 267 268 269 270 271 271 271 272 272 273 273 273 273 273 273 274 274 274 274 274 273 273 274 275 275 275 274 274 274 275 276 277 277 278 278 279 279 279 279 280 280 281 281 281 281 280 280 282 283 284 285 287 288 289
275 274 274 274 274 274 273 273 274 273 273 273 272 272 271 271 271 272 272 273 273 273 274 274 274 274 273 271 270 268 268 267 268 268 268 269 270 271 271 271 271 272 272 273 273 273 273 273 273 273 273 273 272 273 273 273 273 273 273 273 274 274 275 275 275 275 276 276 276 277 277 278 279 279 279 279 279 280 281 282 284 285 286 287 288
279 279 278 276 275 275 275 275 275 274 274 274 273 273 273 272 272 272 273 273 274 274 275 275 275 275 275 276 275 274 273 272 270 269 269 268 269 270 271 271 271 272 272 271 271 271 271 271 271 271 271 271 271 271 271 271 270 270 270 270 271 271 272 272 272 273 273 274 274 274 275 276 277 277 277 277 278 279 280 281 283 284 285 286 287
283 283 281 279 277 275 273 272 270 270 270 270 270 270 270 271 271 271 271 272 272 273 273 273 274 274 274 275 275 276 276 276 274 272 271 270 269 270 270 271 271 272 272 271 271 270 270 270 270 269 269 269 268 267 266 265 265 265 266 267 268 269 270 270 271 271 272 272 272 272 274 275 275 275 276 276 277 278 278 280 282 282 284 285 286
280 279 276 272 269 268 267 265 264 263 263 264 266 268 269 270 270 270 271 271 271 271 271 271 271 271 271 271 271 271 272 272 273 272 272 270 269 269 270 271 271 271 272 272 271 270 270 270 271 271 271 269 266 263 262 262 261 261 263 264 265 267 268 268 269 269 270 270 271 272 273 274 274 274 274 275 276 276 277 279 280 281 283 284 285
274 271 268 266 263 263 264 265 264 264 263 264 265 267 270 271 272 272 272 273 273 272 271 270 270 270 269 269 269 268 267 266 267 268 269 268 268 268 269 270 271 273 274 273 271 270 270 270 271 272 272 271 269 266 266 265 263 261 260 262 264 265 265 265 266 266 267 268 270 271 273 273 273 273 273 273 274 275 276 277 278 280 282 283 284
272 270 269 268 267 266 265 265 265 265 266 266 266 266 267 270 272 273 273 273 274 275 275 274 273 271 270 269 269 269 268 266 265 265 265 266 267 268 269 270 271 273 274 274 274 273 271 270 270 271 272 272 272 271 269 267 266 264 263 262 263 264 264 264 264 264 264 266 268 269 270 271 271 271 271 272 272 273 274 275 277 279 281 282 284
274 273 272 271 270 269 267 265 265 265 265 266 266 266 266 266 267 270 272 273 273 274 275 276 275 275 274 272 270 270 270 269 268 267 266 266 266 267 269 271 272 272 273 274 274 274 272 270 269 270 270 271 272 271 268 267 267 267 266 265 264 264 262 261 261 261 261 263 265 267 269 269 270 270 270 270 270 271 272 274 275 278 280 281 283
275 275 274 273 271 269 267 265 264 264 264 264 265 266 266 265 264 265 267 270 272 273 274 275 275 276 277 276 275 273 272 271 271 271 270 270 269 269 270 271 272 273 273 274 275 274 273 271 270 269 269 270 271 271 270 269 268 269 269 269 269 268 266 264 263 263 263 263 265 266 268 269 268 268 268 268 269 269 271 273 275 277 278 280 282
274 274 274 273 271 269 267 266 264 264 263 264 265 265 266 267 267 265 265 265 267 269 271 273 274 275 276 277 278 278 276 274 274 273 273 273 274 273 272 272 272 273 273 273 274 274 275 274 273 271 270 269 270 270 270 269 268 268 270 271 272 272 271 270 269 268 267 267 267 268 268 267 266 265 265 266 266 268 270 272 274 275 277 279 280
272 272 273 272 271 270 268 266 265 264 264 264 265 265 266 267 268 268 268 266 266 266 267 269 272 273 274 275 277 278 278 277 277 276 276 276 277 277 276 275 275 275 274 273 273 273 273 274 275 275 272 270 269 268 269 269 269 268 269 272 274 275 274 273 271 270 270 269 269 268 267 265 264 263 264 264 265 267 269 271 272 274 276 278 278
270 270 271 270 270 269 268 267 266 265 265 265 265 266 266 267 267 268 268 268 267 266 266 266 268 270 272 274 275 276 277 277 277 278 278 279 279 280 279 279 279 278 277 275 274 273 273 273 274 275 275 272 270 268 268 269 270 270 269 269 272 275 277 276 273 272 271 269 268 268 267 266 264 264 264 264 266 267 268 269 271 273 274 276 276
272 271 271 271 270 269 269 268 268 267 267 267 267 267 267 268 268 268 268 268 268 268 267 267 267 268 270 271 273 274 275 276 276 277 278 279 281 282 282 282 282 281 280 279 278 276 275 274 273 274 275 275 274 271 269 268 269 270 270 270 271 273 277 277 276 273 272 269 268 268 268 267 265 264 264 264 265 266 268 269 270 271 273 273 274
274 274 274 273 273 272 271 270 270 269 269 268 268 269 269 269 269 270 270 270 270 270 270 270 270 270 270 270 271 272 273 274 275 276 277 278 280 282 283 284 284 284 283 282 281 279 278 277 275 273 273 275 276 276 273 270 268 269 270 270 271 272 275 277 277 275 272 270 268 268 268 267 265 264 263 264 265 266 267 268 269 270 270 271 273
277 277 277 277 276 275 274 273 272 272 271 271 270 270 270 270 271 271 271 272 272 272 272 272 272 272 273 272 273 273 273 274 275 275 276 277 278 279 281 282 284 285 285 285 284 283 281 279 277 275 273 272 274 276 276 274 271 270 270 270 271 272 273 275 276 274 272 270 269 268 267 266 265 263 263 263 264 265 266 267 268 268 268 270 272
277 277 278 278 278 278 277 276 275 274 274 273 273 272 272 272 272 272 273 273 273 274 274 274 274 275 275 275 275 276 276 276 276 276 276 277 277 277 278 279 280 282 283 284 285 285 283 281 279 277 274 271 271 272 275 276 275 273 271 271 272 272 273 273 274 273 271 269 268 267 265 264 263 262 262 262 263 264 265 266 267 267 267 270 272
275 275 275 276 276 277 277 277 277 277 276 275 275 274 274 274 274 274 274 275 275 275 275 275 276 276 276 276 277 277 277 277 277 277 277 277 277 278 278 278 278 279 279 281 282 284 284 283 281 279 277 274 270 270 271 274 277 276 274 272 272 272 272 272 271 271 270 268 266 264 262 261 260 260 260 261 262 263 264 265 265 266 267 269 271
275 275 275 275 275 275 275 275 275 275 276 276 276 276 276 275 275 275 275 275 275 275 275 275 276 276 276 276 276 277 277 277 277 277 278 278 278 278 278 279 279 278 278 278 279 281 282 283 282 281 279 276 273 271 270 271 275 277 277 275 273 271 270 270 269 269 268 266 264 262 260 259 258 259 260 260 261 262 263 264 264 265 266 268 270
276 276 276 276 275 275 275 274 274 274 274 274 274 274 274 274 274 275 275 275 275 275 275 275 275 276 276 276 276 276 276 277 277 277 278 278 278 278 278 278 278 278 278 278 277 278 279 281 282 281 280 278 275 273 271 270 272 275 277 278 276 273 270 268 268 268 266 265 263 261 259 258 258 259 260 260 260 261 262 263 263 263 265 267 270
277 276 276 275 275 275 274 274 274 274 273 273 273 272 272 272 272 272 272 273 273 273 273 274 274 274 275 275 275 276 276 276 276 277 277 277 277 277 277 277 277 277 277 277 277 276 277 278 279 279 279 278 276 274 272 271 270 272 275 277 278 276 272 269 267 267 266 265 263 261 259 258 259 259 259 259 259 260 261 261 261 262 263 266 270
276 275 275 275 274 274 274 273 273 273 273 273 272 272 272 272 272 272 272 272 272 272 272 272 273 273 273 274 274 275 275 275 275 275 275 276 276 276 276 276 276 276 276 276 276 276 276 276 276 276 277 277 275 274 272 271 271 272 274 276 277 277 275 271 267 266 265 264 262 260 259 258 258 257 257 258 259 260 260 261 260 260 262 266 270
275 274 274 274 274 273 273 273 273 272 272 272 271 271 271 271 271 271 271 271 272 272 272 272 272 273 273 273 273 273 274 274 274 274 274 274 274 274 275 275 275 275 275 275 275 274 274 274 274 274 274 274 274 272 271 271 271 271 273 276 277 276 275 272 268 265 263 261 259 257 257 256 256 257 257 258 259 260 260 260 259 259 262 267 271
275 275 274 274 274 273 273 272 272 272 271 271 271 270 270 270 270 270 271 271 271 272 272 272 273 273 273 273 273 273 273 274 274 274 274 274 274 274 274 274 274 274 274 274 274 273 273 273 272 271 270 271 271 270 269 270 270 270 271 274 274 273 272 270 267 263 259 257 255 255 255 256 256 256 257 257 258 258 258 258 258 259 263 267 271
278 278 277 277 277 276 275 275 274 273 272 272 271 271 271 271 271 271 271 272 272 272 273 273 273 274 274 274 274 274 274 274 274 274 274 274 273 273 273 273 273 273 273 273 273 272 272 271 270 268 266 266 267 268 267 267 267 267 269 271 271 268 267 266 263 260 257 255 254 254 254 255 255 255 255 256 256 257 257 257 258 260 264 267 270
280 280 280 280 280 280 279 279 278 277 276 275 274 273 273 272 272 272 272 272 272 273 273 273 273 274 274 274 274 274 273 273 273 272 272 272 271 271 271 271 271 271 271 271 271 271 271 270 268 266 263 262 263 264 264 264 264 264 265 267 267 264 262 261 260 258 256 255 254 254 254 254 254 254 254 255 255 255 255 256 258 261 264 267 270
280 280 281 281 282 282 282 281 281 281 280 279 278 277 276 275 274 274 274 273 273 273 273 273 273 273 273 273 273 272 272 272 272 272 271 271 270 270 269 269 269 269 270 270 270 270 269 269 267 265 262 259 259 259 260 261 261 261 262 264 265 263 260 259 258 256 255 254 254 253 253 253 252 252 253 253 253 254 255 256 259 262 265 267 270
280 281 282 282 282 282 282 282 282 282 281 281 280 280 279 278 277 277 277 277 276 276 275 275 274 273 273 273 273 273 273 273 274 274 273 272 272 271 270 270 270 269 268 268 268 268 267 267 266 264 261 258 256 255 256 257 258 258 258 260 262 262 260 258 256 255 254 253 253 252 252 251 251 251 252 252 253 254 255 257 260 262 265 267 269
Height
5769 5770 5770 5771 5772 5772 5772 5773 5773 5773 5773 5773 5774 5774 5773 5773 5773 5772 5773 5772 5772 5772 5771 5771 5771 5771 5770 5770 5769 5768 5767 5766 5765 5764 5763 5763 5761 5760 5759 5758 5757 5756 5755 5753 5752 5750 5749 5748 5747 5745 5743 5742 5740 5739 5737 5735 5733 5732 5731 5730 5729 5728 5727 5725 5725 5726 5725 5723 5722 5719 5717 5715 5712 5709 5707 5704 5702 5700 5699 5696 5694 5692 5690 5688 5686
5762 5763 5764 5764 5765 5765 5765 5765 5765 5765 5766 5766 5766 5766 5766 5766 5766 5766 5767 5766 5766 5766 5766 5765 5765 5764 5764 5763 5762 5761 5761 5760 5759 5758 5757 5757 5756 5755 5754 5753 5752 5751 5749 5748 5746 5744 5743 5742 5741 5740 5738 5736 5735 5733 5731 5730 5728 5727 5726 5725 5724 5723 5721 5720 5719 5719 5718 5717 5715 5713 5711 5709 5706 5704 5701 5699 5697 5695 5694 5692 5689 5687 5685 5683 5681
5756 5757 5757 5758 5758 5758 5758 5758 5758 5758 5759 5759 5759 5759 5759 5759 5759 5760 5760 5760 5760 5760 5759 5759 5759 5758 5757 5757 5756 5755 5754 5753 5753 5752 5751 5751 5750 5749 5749 5747 5746 5745 5744 5743 5741 5739 5737 5736 5735 5734 5732 5731 5729 5728 5726 5725 5723 5722 5721 5720 5718 5717 5716 5714 5713 5712 5712 5710 5709 5707 5705 5703 5700 5698 5696 5694 5692 5690 5688 5686 5684 5682 5680 5678 5675
5749 5750 5751 5751 5751 5751 5751 5751 5751 5751 5752 5752 5752 5752 5752 5752 5752 5753 5753 5753 5753 5753 5753 5753 5752 5752 5751 5750 5750 5749 5748 5747 5746 5746 5745 5745 5744 5743 5742 5741 5740 5739 5738 5737 5735 5733 5732 5731 5729 5727 5726 5725 5724 5723 5721 5720 5719 5717 5716 5715 5713 5712 5710 5708 5707 5706 5705 5704 5703 5701 5698 5697 5694 5692 5690 5688 5686 5684 5682 5680 5679 5676 5674 5672 5670
5743 5743 5743 5743 5744 5744 5743 5743 5743 5744 5745 5745 5745 5745 5745 5746 5746 5746 5746 5746 5746 5746 5746 5745 5745 5745 5745 5744 5743 5743 5742 5741 5740 5739 5738 5738 5738 5737 5736 5735 5734 5733 5732 5731 5729 5728 5726 5725 5723 5722 5720 5720 5719 5718 5716 5715 5713 5712 5711 5709 5708 5707 5705 5703 5701 5699 5698 5698 5696 5694 5692 5690 5688 5686 5684 5682 5680 5678 5676 5674 5672 5670 5668 5666 5664
5736 5736 5736 5736 5737 5736 5736 5737 5736 5737 5737 5738 5738 5738 5739 5739 5739 5739 5739 5739 5739 5738 5738 5738 5737 5738 5738 5737 5737 5736 5735 5735 5734 5733 5732 5731 5731 5730 5730 5729 5728 5727 5726 5725 5723 5722 5721 5720 5718 5716 5715 5714 5713 5712 5710 5709 5707 5706 5705 5704 5702 5700 5698 5696 5695 5693 5692 5691 5690 5688 5686 5684 5682 5680 5678 5676 5674 5672 5670 5667 5665 5664 5663 5660 5657
5729 5729 5729 5729 5730 5730 5730 5730 5730 5730 5730 5730 5731 5731 5731 5731 5731 5731 5731 5731 5731 5730 5730 5730 5730 5730 5730 5730 5730 5729 5729 5728 5727 5726 5725 5724 5723 5722 5722 5721 5721 5720 5719 5718 5717 5716 5715 5713 5712 5711 5709 5708 5707 5705 5704 5703 5701 5700 5699 5697 5695 5693 5691 5690 5688 5687 5686 5684 5683 5681 5679 5677 5675 5674 5672 5669 5667 5665 5663 5661 5659 5658 5656 5654 5651
5723 5723 5723 5723 5723 5723 5723 5723 5723 5723 5723 5723 5723 5723 5723 5723 5724 5724 5723 5723 5723 5722 5722 5723 5723 5723 5723 5723 5723 5723 5722 5722 5720 5719 5717 5716 5715 5714 5714 5713 5713 5713 5712 5711 5710 5709 5708 5707 5705 5704 5703 5702 5700 5699 5697 5696 5695 5693 5692 5690 5688 5686 5685 5683 5682 5681 5679 5678 5676 5675 5673 5671 5669 5667 5665 5663 5661 5659 5657 5655 5654 5652 5650 5648 5645
5716 5716 5717 5717 5716 5717 5717 5717 5717 5717 5716 5716 5716 5716 5716 5716 5716 5716 5716 5716 5715 5715 5715 5715 5715 5715 5715 5715 5715 5715 5715 5714 5712 5710 5709 5708 5707 5706 5706 5705 5705 5705 5704 5704 5703 5701 5700 5699 5697 5696 5695 5694 5693 5691 5690 5689 5687 5686 5685 5683 5681 5679 5678 5677 5676 5674 5673 5671 5669 5668 5666 5664 5662 5660 5658 5656 5654 5653 5651 5650 5648 5646 5644 5642 5639
5709 5709 5709 5709 5709 5709 5710 5710 5710 5710 5710 5710 5709 5709 5709 5709 5709 5709 5709 5709 5708 5708 5708 5708 5708 5708 5707 5707 5707 5706 5706 5705 5703 5701 5700 5699 5698 5697 5697 5697 5697 5696 5696 5696 5695 5694 5692 5691 5689 5688 5687 5685 5684 5683 5682 5681 5679 5678 5677 5675 5674 5672 5671 5670 5669 5667 5665 5664 5662 5661 5659 5658 5656 5653 5651 5649 5648 5647 5645 5644 5642 5640 5638 5637 5634
5702 5702 5701 5701 5701 5701 5702 5703 5703 5703 5703 5703 5702 5703 5702 5702 5703 5702 5702 5702 5701 5701 5701 5701 5700 5700 5700 5699 5699 5698 5697 5696 5694 5693 5691 5690 5689 5688 5688 5688 5688 5688 5688 5687 5687 5686 5684 5683 5682 5680 5679 5677 5676 5675 5674 5673 5672 5671 5669 5668 5666 5665 5664 5662 5661 5659 5658 5656 5655 5654 5652 5651 5649 5647 5645 5643 5642 5640 5639 5638 5636 5634 5632 5631 5629
5695 5695 5694 5693 5693 5693 5693 5694 5695 5695 5695 5695 5695 5695 5695 5695 5695 5694 5694 5694 5694 5694 5695 5694 5693 5693 5692 5692 5692 5691 5691 5689 5687 5686 5685 5683 5681 5680 5680 5680 5680 5680 5679 5679 5679 5678 5677 5676 5674 5673 5671 5670 5668 5667 5666 5665 5664 5663 5661 5659 5658 5657 5656 5655 5653 5652 5650 5649 5648 5647 5645 5643 5642 5640 5638 5637 5636 5634 5633 5631 5629 5627 5626 5625 5623
5687 5686 5686 5686 5685 5685 5684 5684 5685 5686 5686 5686 5686 5686 5686 5686 5685 5685 5685 5685 5685 5686 5686 5686 5686 5685 5685 5685 5685 5685 5684 5682 5680 5679 5678 5676 5674 5673 5673 5673 5672 5672 5672 5671 5671 5670 5669 5668 5667 5665 5663 5662 5660 5659 5658 5657 5655 5654 5653 5652 5651 5650 5649 5647 5646 5644 5643 5642 5641 5640 5638 5636 5635 5634 5632 5630 5629 5628 5626 5625 5623 5621 5620 5618 5616
5677 5677 5677 5677 5677 5677 5676 5676 5676 5676 5675 5676 5677 5677 5677 5676 5676 5675 5675 5676 5676 5677 5677 5677 5677 5677 5677 5678 5678 5678 5677 5674 5672 5671 5670 5668 5666 5665 5665 5665 5664 5664 5664 5663 5662 5661 5661 5659 5659 5657 5655 5654 5652 5651 5650 5649 5647 5646 5645 5645 5644 5643 5641 5639 5638 5636 5635 5634 5634 5632 5630 5629 5628 5627 5625 5624 5623 5621 5620 5619 5617 5615 5613 5612 5610
5667 5667 5668 5668 5667 5667 5667 5668 5668 5667 5666 5666 5667 5668 5667 5666 5665 5665 5665 5666 5667 5667 5667 5667 5667 5667 5668 5668 5669 5671 5670 5666 5663 5662 5661 5659 5657 5657 5657 5657 5656 5656 5655 5654 5653 5653 5652 5651 5650 5649 5647 5646 5644 5643 5642 5641 5639 5639 5638 5638 5637 5635 5634 5632 5630 5629 5628 5627 5626 5625 5623 5622 5621 5620 5619 5618 5616 5615 5613 5612 5611 5609 5607 5605 5603
5658 5658 5658 5658 5657 5657 5657 5658 5658 5658 5657 5657 5657 5658 5657 5656 5655 5654 5655 5656 5656 5656 5657 5656 5657 5657 5657 5657 5658 5660 5660 5657 5655 5654 5652 5650 5648 5647 5648 5648 5647 5647 5647 5646 5645 5644 5643 5642 5641 5640 5639 5638 5636 5635 5633 5632 5632 5631 5631 5630 5629 5627 5626 5624 5623 5622 5621 5620 5618 5617 5616 5615 5614 5613 5612 5611 5609 5608 5607 5606 5604 5602 5601 5599 5597
5647 5648 5649 5648 5648 5647 5647 5648 5648 5648 5647 5647 5647 5647 5647 5647 5646 5645 5646 5646 5646 5646 5646 5646 5646 5646 5647 5647 5647 5649 5649 5647 5645 5644 5643 5641 5639 5638 5638 5638 5638 5639 5638 5637 5636 5635 5635 5634 5633 5632 5631 5630 5629 5626 5625 5624 5624 5624 5623 5621 5620 5619 5618 5616 5615 5614 5613 5612 5611 5610 5609 5608 5607 5606 5605 5604 5602 5601 5600 5599 5597 5595 5594 5592 5590
5634 5636 5637 5637 5637 5637 5637 5638 5639 5638 5638 5637 5636 5636 5636 5636 5636 5635 5636 5636 5637 5636 5635 5636 5636 5636 5636 5636 5636 5637 5638 5637 5634 5633 5633 5631 5629 5629 5628 5628 5629 5630 5629 5628 5627 5627 5626 5626 5624 5624 5624 5623 5621 5618 5617 5616 5616 5616 5615 5613 5613 5612 5610 5609 5607 5606 5605 5604 5603 5602 5601 5601 5600 5599 5597 5596 5596 5595 5594 5592 5590 5588 5587 5586 5584
5622 5623 5624 5624 5624 5624 5625 5626 5627 5628 5628 5628 5627 5626 5625 5625 5625 5625 5625 5625 5626 5626 5625 5625 5626 5626 5625 5626 5625 5626 5627 5626 5623 5622 5623 5621 5619 5619 5618 5618 5620 5621 5619 5618 5618 5618 5618 5617 5616 5616 5615 5614 5612 5611 5609 5609 5609 5608 5607 5606 5605 5604 5602 5600 5599 5598 5597 5596 5596 5595 5594 5594 5593 5591 5589 5589 5589 5588 5587 5585 5583 5582 5581 5579 5578
5611 5611 5611 5611 5612 5612 5612 5613 5614 5614 5615 5616 5617 5616 5615 5614 5614 5614 5614 5614 5614 5614 5614 5614 5615 5616 5615 5615 5615 5615 5616 5616 5614 5612 5612 5611 5609 5608 5608 5609 5610 5610 5608 5608 5609 5609 5609 5609 5608 5607 5606 5605 5604 5603 5602 5601 5601 5600 5599 5598 5598 5596 5594 5592 5591 5590 5589 5589 5588 5588 5587 5586 5585 5583 5582 5581 5581 5581 5580 5579 5577 5576 5575 5573 5572
5601 5601 5600 5600 5600 5600 5600 5600 5600 5601 5601 5602 5604 5604 5603 5602 5602 5602 5602 5602 5602 5603 5603 5603 5603 5605 5604 5604 5604 5604 5604 5604 5603 5602 5601 5600 5599 5598 5598 5600 5600 5599 5598 5598 5599 5600 5600 5599 5598 5597 5595 5595 5595 5594 5593 5593 5593 5592 5591 5590 5589 5587 5585 5585 5584 5583 5582 5581 5581 5580 5579 5578 5577 5576 5574 5574 5574 5574 5573 5572 5570 5569 5568 5567 5565
5590 5589 5589 5589 5588 5588 5588 5587 5588 5588 5588 5589 5591 5591 5590 5589 5590 5590 5590 5590 5590 5591 5591 5591 5591 5593 5594 5593 5593 5593 5593 5593 5592 5591 5590 5589 5589 5588 5589 5590 5590 5588 5589 5590 5591 5591 5590 5589 5588 5587 5586 5586 5586 5585 5585 5584 5584 5584 5583 5582 5580 5579 5578 5577 5576 5575 5574 5574 5573 5573 5572 5571 5570 5568 5567 5566 5566 5566 5565 5564 5563 5562 5561 5560 5558
5578 5578 5578 5578 5577 5577 5577 5576 5576 5576 5577 5577 5578 5579 5578 5577 5577 5578 5578 5578 5579 5579 5579 5579 5579 5581 5582 5582 5582 5582 5581 5581 5581 5580 5579 5578 5578 5578 5579 5580 5579 5578 5579 5581 5582 5581 5581 5580 5579 5577 5576 5576 5577 5577 5576 5576 5576 5576 5574 5572 5572 5571 5570 5569 5568 5568 5567 5566 5565 5565 5564 5563 5562 5560 5559 5559 5558 5558 5558 5557 5556 5555 5554 5553 5552
5566 5566 5566 5566 5566 5566 5566 5566 5565 5565 5565 5566 5567 5567 5566 5565 5565 5565 5564 5565 5566 5567 5567 5567 5568 5569 5570 5571 5571 5570 5569 5569 5569 5569 5568 5568 5567 5567 5567 5568 5568 5567 5568 5570 5571 5571 5571 5571 5570 5568 5567 5567 5568 5568 5567 5567 5567 5566 5565 5564 5563 5562 5561 5560 5560 5559 5559 5559 5558 5557 5556 5555 5554 5553 5552 5551 5550 5550 5550 5550 5549 5548 5547 5545 5544
5556 5556 5555 5555 5555 5555 5556 5555 5555 5554 5554 5555 5555 5556 5555 5555 5555 5554 5553 5553 5553 5554 5555 5555 5556 5557 5558 5559 5560 5559 5558 5558 5558 5558 5557 5557 5556 5556 5556 5556 5557 5557 5558 5560 5560 5561 5561 5561 5560 5559 5558 5558 5559 5559 5558 5558 5557 5557 5556 5555 5554 5553 5552 5552 5551 5551 5551 5551 5550 5549 5548 5547 5546 5545 5544 5543 5542 5543 5543 5542 5542 5540 5539 5538 5537
5547 5547 5546 5545 5545 5545 5546 5546 5545 5544 5544 5544 5545 5545 5545 5545 5545 5544 5544 5543 5543 5544 5544 5545 5545 5545 5546 5547 5548 5548 5548 5549 5548 5547 5547 5546 5546 5545 5545 5546 5546 5546 5548 5550 5550 5550 5551 5551 5550 5549 5549 5548 5548 5549 5549 5548 5547 5547 5546 5546 5545 5544 5544 5543 5543 5543 5543 5542 5542 5541 5540 5539 5539 5537 5536 5535 5535 5535 5535 5534 5534 5533 5532 5531 5530
5538 5538 5537 5537 5536 5536 5537 5537 5537 5536 5535 5535 5535 5535 5535 5535 5536 5536 5535 5534 5535 5535 5535 5536 5535 5535 5535 5536 5537 5537 5538 5538 5537 5536 5536 5536 5536 5535 5534 5535 5536 5536 5537 5539 5540 5540 5540 5541 5540 5539 5538 5538 5539 5539 5539 5538 5537 5537 5537 5536 5536 5535 5535 5535 5534 5534 5534 5534 5533 5533 5532 5531 5530 5529 5528 5527 5527 5528 5527 5526 5526 5525 5524 5523 5522
5530 5529 5529 5529 5528 5528 5528 5528 5528 5528 5527 5526 5526 5526 5526 5526 5527 5527 5526 5525 5526 5527 5527 5527 5526 5526 5526 5527 5527 5528 5529 5528 5527 5527 5526 5526 5526 5525 5524 5525 5526 5526 5527 5528 5529 5529 5529 5529 5529 5529 5528 5528 5528 5528 5528 5527 5526 5526 5526 5526 5526 5525 5525 5525 5525 5525 5525 5525 5524 5524 5524 5523 5522 5521 5520 5519 5519 5519 5519 5518 5517 5517 5516 5516 5515
5524 5523 5522 5521 5521 5520 5520 5519 5519 5519 5519 5518 5518 5517 5517 5517 5518 5519 5518 5516 5517 5518 5519 5518 5517 5516 5517 5518 5518 5519 5520 5519 5517 5517 5518 5518 5517 5516 5515 5515 5516 5516 5516 5516 5517 5518 5518 5519 5519 5519 5519 5518 5518 5518 5517 5517 5516 5516 5515 5515 5515 5515 5515 5515 5515 5515 5515 5515 5515 5515 5514 5514 5513 5513 5512 5511 5511 5511 5510 5510 5509 5509 5508 5508 5507
5517 5515 5514 5514 5513 5513 5512 5512 5511 5510 5510 5511 5510 5510 5509 5508 5508 5509 5509 5508 5508 5509 5509 5510 5509 5507 5508 5509 5508 5508 5510 5509 5508 5508 5509 5508 5507 5507 5506 5506 5506 5506 5506 5506 5506 5507 5508 5509 5509 5509 5509 5509 5509 5509 5509 5509 5508 5507 5506 5505 5505 5505 5505 5505 5505 5505 5505 5505 5505 5505 5505 5505 5504 5504 5503 5502 5503 5503 5502 5501 5501 5501 5501 5500 5500
5509 5508 5507 5506 5505 5505 5505 5504 5504 5503 5502 5502 5502 5503 5503 5502 5501 5500 5500 5500 5500 5500 5500 5500 5500 5499 5499 5500 5499 5499 5499 5499 5498 5498 5498 5498 5498 5497 5497 5497 5497 5497 5497 5497 5497 5498 5498 5499 5499 5499 5499 5499 5499 5500 5500 5499 5499 5498 5497 5496 5495 5495 5495 5495 5494 5494 5494 5495 5495 5495 5495 5495 5495 5495 5494 5494 5494 5494 5493 5493 5493 5493 5493 5493 5492
5500 5500 5499 5498 5498 5497 5497 5496 5496 5495 5495 5494 5494 5494 5494 5495 5495 5494 5492 5492 5492 5492 5491 5491 5491 5490 5490 5490 5491 5491 5490 5489 5489 5488 5488 5488 5488 5487 5487 5487 5488 5488 5488 5488 5489 5489 5488 5488 5488 5488 5488 5488 5488 5488 5488 5488 5488 5488 5488 5487 5485 5484 5484 5484 5483 5483 5483 5484 5485 5485 5485 5485 5485 5485 5485 5485 5486 5485 5484 5484 5485 5486 5485 5485 5485
5490 5491 5490 5490 5490 5489 5488 5488 5488 5487 5487 5486 5485 5485 5485 5485 5487 5487 5486 5486 5485 5485 5484 5483 5482 5482 5482 5481 5481 5482 5481 5481 5480 5480 5480 5479 5479 5478 5478 5478 5478 5479 5479 5479 5479 5479 5478 5477 5477 5478 5477 5477 5477 5477 5477 5477 5478 5478 5478 5477 5476 5475 5475 5475 5475 5475 5475 5476 5476 5476 5476 5476 5476 5476 5476 5476 5476 5476 5476 5476 5477 5478 5478 5477 5477
5481 5481 5481 5481 5481 5481 5480 5480 5479 5479 5478 5478 5477 5477 5477 5476 5477 5477 5478 5479 5479 5478 5478 5476 5475 5475 5474 5473 5473 5472 5472 5472 5472 5472 5471 5471 5470 5469 5469 5469 5470 5469 5469 5469 5469 5469 5468 5468 5468 5467 5467 5467 5467 5467 5467 5468 5468 5468 5468 5468 5467 5467 5467 5468 5468 5468 5468 5468 5468 5467 5467 5467 5467 5467 5467 5467 5467 5467 5468 5469 5469 5469 5470 5469 5469
5473 5473 5472 5472 5472 5472 5472 5471 5471 5471 5470 5470 5469 5469 5469 5469 5468 5468 5469 5470 5470 5471 5471 5469 5468 5467 5467 5466 5465 5464 5464 5464 5464 5463 5463 5462 5461 5460 5460 5461 5461 5460 5460 5460 5460 5459 5459 5459 5459 5458 5457 5457 5457 5457 5457 5457 5457 5457 5458 5458 5458 5458 5458 5458 5459 5459 5459 5460 5460 5459 5459 5458 5458 5458 5457 5458 5458 5459 5459 5460 5461 5461 5462 5461 5461
5464 5464 5464 5463 5463 5463 5463 5462 5462 5462 5462 5462 5461 5461 5460 5460 5460 5460 5460 5460 5461 5462 5462 5462 5461 5460 5459 5458 5457 5456 5456 5456 5455 5455 5454 5453 5452 5452 5452 5452 5452 5451 5451 5451 5450 5449 5449 5449 5449 5449 5448 5448 5447 5447 5447 5447 5447 5447 5447 5447 5447 5448 5448 5449 5449 5449 5449 5450 5450 5450 5450 5450 5450 5449 5449 5449 5451 5451 5452 5452 5453 5453 5454 5454 5453
5455 5455 5455 5455 5454 5454 5454 5454 5454 5453 5453 5453 5453 5452 5452 5452 5451 5451 5451 5451 5451 5452 5452 5453 5453 5452 5452 5451 5449 5447 5447 5447 5446 5447 5446 5445 5444 5443 5443 5443 5443 5442 5442 5442 5441 5440 5440 5440 5439 5439 5439 5438 5437 5437 5437 5437 5437 5437 5437 5437 5438 5438 5438 5439 5439 5439 5439 5440 5440 5440 5441 5441 5441 5441 5441 5441 5442 5443 5444 5445 5446 5446 5446 5446 5445
5446 5446 5446 5446 5445 5445 5445 5445 5445 5444 5444 5444 5443 5443 5442 5442 5442 5441 5441 5441 5441 5441 5442 5443 5443 5442 5443 5442 5440 5439 5439 5438 5438 5438 5438 5436 5436 5435 5434 5434 5434 5433 5433 5433 5432 5431 5431 5431 5430 5430 5429 5429 5428 5428 5427 5427 5427 5427 5428 5428 5428 5428 5429 5429 5430 5430 5430 5430 5430 5431 5432 5432 5432 5432 5432 5433 5435 5436 5437 5437 5438 5438 5438 5438 5437
5436 5436 5436 5435 5435 5435 5435 5435 5435 5434 5434 5434 5433 5432 5432 5431 5431 5430 5430 5430 5430 5430 5431 5431 5432 5432 5431 5430 5429 5429 5428 5428 5428 5428 5428 5428 5427 5426 5426 5426 5425 5425 5424 5423 5422 5422 5422 5421 5421 5421 5420 5420 5420 5419 5419 5418 5418 5418 5418 5418 5418 5419 5419 5420 5421 5421 5421 5421 5421 5422 5422 5422 5422 5423 5424 5425 5427 5428 5429 5430 5430 5430 5430 5430 5430
5425 5425 5424 5424 5423 5423 5423 5423 5423 5422 5422 5421 5421 5420 5420 5420 5419 5418 5418 5418 5418 5418 5419 5419 5420 5420 5419 5418 5418 5417 5417 5417 5418 5417 5417 5418 5418 5417 5417 5417 5416 5416 5415 5414 5414 5413 5412 5412 5412 5412 5411 5411 5411 5410 5410 5410 5409 5409 5409 5409 5409 5409 5410 5411 5411 5411 5412 5412 5412 5413 5413 5413 5413 5414 5415 5417 5419 5420 5421 5422 5422 5422 5422 5422 5422
5415 5415 5414 5413 5411 5411 5410 5410 5409 5409 5409 5408 5408 5408 5407 5407 5406 5406 5405 5405 5405 5406 5406 5406 5407 5407 5406 5406 5405 5404 5404 5405 5406 5405 5405 5406 5406 5406 5406 5406 5406 5406 5406 5405 5405 5404 5402 5402 5402 5402 5402 5402 5401 5401 5401 5401 5400 5400 5399 5399 5400 5400 5400 5401 5402 5402 5402 5402 5403 5403 5404 5404 5405 5406 5408 5409 5411 5413 5413 5414 5414 5414 5414 5414 5414
5405 5404 5404 5402 5401 5400 5399 5398 5397 5396 5395 5395 5395 5394 5393 5393 5393 5392 5392 5392 5392 5392 5392 5393 5394 5394 5393 5393 5393 5392 5391 5392 5393 5393 5393 5394 5393 5394 5394 5395 5395 5395 5396 5395 5395 5394 5393 5392 5392 5392 5392 5392 5392 5392 5392 5391 5391 5391 5390 5390 5390 5391 5391 5392 5392 5392 5392 5393 5393 5394 5394 5395 5397 5398 5400 5402 5403 5404 5405 5405 5405 5406 5406 5405 5406
5394 5393 5392 5390 5389 5388 5387 5386 5385 5384 5383 5382 5382 5381 5380 5380 5379 5379 5378 5379 5379 5379 5379 5380 5381 5381 5380 5380 5380 5379 5379 5379 5380 5380 5380 5380 5380 5381 5382 5382 5383 5383 5384 5384 5385 5384 5384 5383 5382 5382 5382 5382 5382 5382 5382 5382 5381 5381 5381 5381 5381 5381 5381 5382 5382 5382 5383 5383 5383 5384 5385 5387 5389 5391 5392 5394 5395 5395 5396 5396 5397 5397 5397 5397 5397
5381 5380 5378 5377 5376 5374 5373 5372 5371 5370 5369 5368 5368 5368 5367 5365 5365 5365 5365 5365 5366 5365 5365 5366 5367 5367 5367 5366 5366 5365 5365 5365 5366 5366 5367 5366 5367 5367 5368 5369 5370 5371 5371 5372 5373 5373 5373 5373 5372 5371 5371 5372 5372 5372 5372 5372 5372 5372 5372 5372 5372 5372 5372 5372 5372 5372 5373 5373 5374 5375 5377 5379 5381 5382 5384 5385 5386 5386 5387 5388 5388 5389 5389 5389 5388
5366 5364 5363 5362 5360 5359 5358 5357 5355 5355 5354 5353 5353 5352 5351 5350 5350 5350 5350 5350 5350 5350 5350 5351 5351 5351 5352 5352 5351 5350 5350 5350 5351 5351 5351 5352 5352 5352 5353 5354 5355 5356 5358 5359 5360 5361 5362 5362 5362 5361 5360 5361 5361 5362 5362 5362 5362 5362 5362 5362 5363 5363 5363 5362 5362 5363 5363 5364 5366 5367 5369 5371 5372 5373 5375 5376 5377 5378 5378 5379 5380 5380 5381 5380 5380
5349 5348 5347 5345 5344 5342 5341 5340 5338 5338 5337 5336 5336 5336 5335 5334 5334 5334 5333 5333 5334 5334 5334 5334 5335 5335 5335 5336 5336 5335 5335 5335 5335 5335 5335 5336 5336 5337 5337 5338 5340 5341 5343 5344 5346 5348 5349 5350 5350 5350 5350 5349 5350 5351 5352 5352 5352 5352 5352 5352 5353 5354 5354 5353 5353 5354 5355 5356 5358 5359 5361 5362 5363 5364 5365 5367 5368 5369 5370 5370 5371 5372 5372 5372 5372
5331 5330 5328 5327 5326 5325 5323 5322 5321 5320 5319 5318 5318 5317 5317 5317 5317 5317 5317 5317 5317 5317 5317 5317 5317 5317 5318 5318 5318 5319 5319 5318 5318 5318 5319 5319 5320 5321 5321 5322 5324 5325 5327 5329 5331 5333 5335 5336 5337 5338 5338 5338 5338 5339 5340 5341 5341 5341 5342 5342 5343 5344 5344 5344 5344 5345 5346 5347 5349 5350 5352 5353 5354 5355 5356 5358 5359 5360 5361 5362 5362 5363 5363 5363 5363
5314 5313 5311 5309 5308 5306 5305 5304 5303 5302 5301 5300 5300 5299 5299 5300 5300 5300 5300 5300 5300 5300 5300 5300 5300 5300 5300 5300 5301 5301 5301 5300 5301 5301 5301 5302 5303 5303 5304 5305 5307 5309 5310 5312 5314 5316 5319 5322 5323 5324 5325 5325 5326 5327 5328 5329 5330 5330 5331 5332 5333 5334 5335 5335 5336 5336 5337 5338 5340 5341 5342 5343 5344 5345 5347 5348 5350 5351 5352 5353 5353 5354 5354 5354 5355
5301 5299 5297 5295 5293 5291 5290 5288 5287 5286 5284 5284 5283 5282 5282 5282 5282 5283 5283 5283 5284 5284 5284 5284 5284 5283 5283 5283 5283 5283 5282 5282 5282 5282 5282 5283 5284 5285 5286 5287 5288 5291 5293 5295 5297 5300 5302 5305 5308 5310 5311 5312 5312 5314 5315 5317 5318 5319 5320 5322 5322 5323 5325 5326 5326 5327 5328 5329 5330 5332 5333 5334 5335 5336 5338 5339 5340 5342 5343 5343 5344 5344 5344 5345 5346
5290 5289 5287 5285 5283 5281 5279 5278 5276 5274 5273 5271 5270 5269 5269 5268 5268 5268 5269 5269 5269 5269 5268 5268 5268 5267 5267 5267 5267 5266 5266 5266 5265 5265 5265 5265 5266 5267 5268 5269 5271 5273 5275 5278 5280 5283 5285 5288 5291 5294 5295 5297 5298 5300 5302 5304 5305 5307 5309 5310 5311 5312 5314 5315 5317 5317 5318 5320 5321 5322 5323 5324 5325 5327 5328 5330 5331 5332 5333 5334 5335 5335 5335 5336 5337
5281 5280 5278 5276 5275 5273 5271 5269 5268 5266 5265 5263 5262 5261 5260 5259 5259 5259 5259 5258 5258 5257 5257 5256 5256 5255 5254 5254 5254 5254 5253 5253 5253 5252 5252 5252 5252 5253 5254 5255 5256 5258 5259 5261 5264 5266 5268 5271 5274 5277 5280 5282 5284 5286 5288 5290 5292 5294 5296 5298 5299 5301 5302 5304 5306 5307 5308 5309 5310 5312 5313 5314 5316 5317 5319 5320 5322 5323 5324 5325 5325 5326 5326 5327 5328